Miscellaneous Local Product
Issued by NWS North Platte, NE

Home | Current Version | Previous Version | Text Only | Print | Product List | Glossary On
Versions: 1 2 3 4 5 6 7 8 9 10 11 12 13 14 15 16 17 18 19 20 21 22 23 24 25 26 27 28 29 30 31 32 33 34 35 36 37 38 39 40 41 42 43 44 45 46 47 48 49 50
000
AXUS43 KLBF 010410
MISLBF


WESTERN AND NORTH CENTRAL NEBRASKA HOURLY WEATHER ROUNDUP
NATIONAL WEATHER SERVICE NORTH PLATTE NE
1100 PM CDT WED AUG 31 2016

NOTE: "FAIR" INDICATES FEW OR NO CLOUDS BELOW 12,000 FEET WITH NO
SIGNIFICANT WEATHER AND/OR OBSTRUCTIONS TO VISIBILITY.

NOTE: STATIONS NOT REPORTING VARIABLES SUCH AS SKY/WEATHER OR
PRESSURE ARE PROVIDED BY RAWS AND APRS NETWORKS AND ARE NOT UNDER
NATIONAL WEATHER SERVICE QUALITY CONTROL.

...OBSERVATIONS IN AND NEAR THE EASTERN PANHANDLE OF NEBRASKA...

CITY           SKY/WX    TMP DP  RH WIND       PRES   REMARKS
PINE RIDGE     CLEAR     71  56  58 SE16G24   30.20S
CHADRON        CLEAR     71  57  61 S17       30.18S
ALLIANCE       CLEAR     64  60  87 SE12      30.24R
SIDNEY         MOCLDY    63  61  93 SE9       30.29R
CRESCENT LAKE    N/A     65  61  87 S7          N/A
$$

...OBSERVATIONS IN NORTHERN NEBRASKA AND FAR SOUTHERN SOUTH DAKOTA...

CITY           SKY/WX    TMP DP  RH WIND       PRES   REMARKS
WINNER         FAIR      67  58  72 SE8       30.20R
VALENTINE      CLEAR     68  55  63 S10       30.22R
THEDFORD       CLEAR     63  56  80 SE5       30.25S
AINSWORTH      CLEAR     65  56  74 SE7       30.24R
O`NEILL        CLEAR     67  57  72 SE3       30.24R
ORD            CLEAR     60  56  86 CALM      30.22R
BROKEN BOW     CLEAR     63  58  83 SE7       30.23S
VALENTINE NWR    N/A     63  55  75 SE5         N/A
BUTTE            N/A     65  58  77 SE5         N/A
HALSEY           N/A     67  57  70 SE5         N/A
EWING            N/A     62  59  91 CALM        N/A
$$

...OBSERVATIONS IN SOUTHWEST NEBRASKA AND FAR NORTHEAST COLORADO...

CITY           SKY/WX    TMP DP  RH WIND       PRES   REMARKS
WRAY           MOCLDY    63  61  94 E5        30.27R
HOLYOKE        MOCLDY    64  63  94 SE6       30.27R
IMPERIAL       CLEAR     63  61  93 E3        30.25R
OGALLALA       PTCLDY    66  63  90 CALM      30.26R
NORTH PLATTE   CLEAR     62  60  93 E5        30.24R
MCCOOK         PTCLDY    64  61  90 E6        30.22R
LEXINGTON      CLEAR     64  59  81 SE5       30.23R
STAPLETON        N/A     63  58  83 CALM        N/A
GOTHENBURG       N/A     66  60  81 CALM        N/A
CALLAWAY         N/A     62  59  89 SE7         N/A
$$

...OBSERVATIONS IN CENTRAL LINCOLN COUNTY AREA...

CITY           SKY/WX    TMP DP  RH WIND       PRES   REMARKS
N.P. AIRPORT   CLEAR     62  60  93 E5        30.24R
N.P. DOWNTOWN    N/A     67  60  79 CALM        N/A
N.P. SOUTHEAST   N/A     66  60  80 CALM        N/A
N.P. HILLCREST   N/A     65  61  87 E5          N/A
$$

...SOME OBSERVATIONS FROM AROUND THE REGION...

CITY           SKY/WX    TMP DP  RH WIND       PRES   REMARKS
DENVER         MOCLDY    63  54  72 SE15      30.28R
LARAMIE        CLEAR     58  50  75 SE15      30.34R
CHEYENNE       CLEAR     60  55  83 S10       30.32S
SCOTTSBLUFF    CLEAR     64  59  83 SE8       30.24R
RAPID CITY     CLEAR     63  54  72 SE7       30.17R
BISMARCK       CLEAR     66  63  90 E6        30.15F
PIERRE         CLEAR     72  60  66 SE10      30.15R
SIOUX FALLS    PTCLDY    66  60  81 SE5       30.22R
OMAHA          CLEAR     63  59  87 NW6       30.18R
GRAND ISLAND   CLEAR     62  58  86 E5        30.22S
KANSAS CITY    PTCLDY    68  61  78 NE6       30.13R
WICHITA        CLOUDY    75  68  78 NE9       30.12R
OKLAHOMA CITY  LGT RAIN  72  70  93 NE7       30.09R
DALLAS         MOCLDY    85  70  60 NE7       29.98R
AMARILLO       CLOUDY    68  66  93 E9        30.23R
DODGE CITY     CLOUDY    69  67  93 E7        30.18F
HAYS           CLOUDY    66  57  72 NE3       30.18S
GOODLAND       MOCLDY    64  62  93 S6        30.24S
$$




USA.gov is the U.S. government's official web portal to all federal, state and local government web resources and services.